Location: Gazon
(48.1318°N, 1.2708°W)
Time: 22:28:07
(UTC+00:00)

Cosmos 1626 - Pass Details

Date: 18 September 2020
Orbit: 490 x 495 km, 82.5° (Epoch: 24 October)

Event Time Altitude Azimuth Distance (km) Brightness Sun altitude
Rises 20:12:49 0° 357° (N) 2,590 6.2 -20.4°
Reaches altitude 10° 20:15:03 10° 5° (N) 1,701 5.1 -20.8°
Enters shadow 20:17:25 30° 34° (NE) 909 3.3 -21.1°
